Location: ???
(60.6398°N, 46.9067°E)
Time: 17:14:52
(UTC+00:00)

Cosmos 2333 Rocket - Pass Details

Date: 08 December 2019
Orbit: 837 x 864 km, 70.8° (Epoch: 22 January)

Event Time Altitude Azimuth Distance (km) Brightness Sun altitude
Rises 16:16:28 0° 245° (WSW) 3,432 6.1 -30.9°
Reaches altitude 10° 16:19:00 10° 251° (WSW) 2,501 5.3 -31.2°
Maximum altitude 16:24:35 50° 326° (NNW) 1,095 2.9 -31.9°
Enters shadow 16:24:39 50° 329° (NNW) 1,095 2.9 -31.9°
